Time,TemperatureF,DewpointF,PressureIn,WindDirection,WindDirectionDegrees,WindSpeedMPH,WindSpeedGustMPH,Humidity,HourlyPrecipIn,Conditions,Clouds,dailyrainin,SoftwareType,DateUTC
2013-04-06 00:00:00,44.9,35.7,29.97,NW,326,0.0,1.0,70,0.00,,CLR,0.02,VWS V14.00,2013-04-06 04:00:00,
2013-04-06 00:15:00,44.3,35.5,29.97,NW,326,0.0,0.0,71,0.00,,CLR,0.00,VWS V14.00,2013-04-06 04:15:00,
2013-04-06 00:30:00,43.8,35.7,29.98,NW,326,0.0,1.0,73,0.00,,CLR,0.00,VWS V14.00,2013-04-06 04:30:00,
2013-04-06 00:45:00,43.1,35.4,29.98,NW,326,0.0,0.0,74,0.00,,CLR,0.00,VWS V14.00,2013-04-06 04:45:00,
2013-04-06 01:00:00,42.9,34.8,29.98,NNW,333,0.0,0.0,73,0.00,,CLR,0.00,VWS V14.00,2013-04-06 05:00:00,
2013-04-06 01:15:00,42.3,34.6,29.98,NNW,333,0.0,0.0,74,0.00,,CLR,0.00,VWS V14.00,2013-04-06 05:15:00,
2013-04-06 01:30:00,42.5,35.2,29.98,NNW,330,0.0,1.0,75,0.00,,CLR,0.00,VWS V14.00,2013-04-06 05:30:00,
2013-04-06 01:45:00,42.5,34.8,29.99,NNW,328,0.0,1.0,74,0.00,,CLR,0.00,VWS V14.00,2013-04-06 05:45:00,
2013-04-06 02:00:00,41.6,34.3,29.99,NNW,333,0.0,0.0,75,0.00,,CLR,0.00,VWS V14.00,2013-04-06 06:00:00,
2013-04-06 02:15:00,41.8,34.5,29.99,NNW,335,0.0,0.0,75,0.00,,CLR,0.00,VWS V14.00,2013-04-06 06:15:00,
2013-04-06 02:30:00,41.3,34.0,30.00,NNW,336,0.0,0.0,75,0.00,,CLR,0.00,VWS V14.00,2013-04-06 06:30:00,
2013-04-06 02:45:00,41.2,33.5,30.00,NNW,336,0.0,0.0,74,0.00,,CLR,0.00,VWS V14.00,2013-04-06 06:45:00,
2013-04-06 03:00:00,40.3,33.0,30.01,NNW,332,0.0,0.0,75,0.00,,CLR,0.00,VWS V14.00,2013-04-06 07:00:00,
2013-04-06 03:15:00,40.1,33.2,30.01,NNW,340,0.0,0.0,76,0.00,,CLR,0.00,VWS V14.00,2013-04-06 07:15:00,
2013-04-06 03:30:00,40.1,33.2,30.02,NNW,337,0.0,0.0,76,0.00,,CLR,0.00,VWS V14.00,2013-04-06 07:30:00,
2013-04-06 03:45:00,40.1,32.8,30.02,NNW,344,0.0,0.0,75,0.00,,CLR,0.00,VWS V14.00,2013-04-06 07:45:00,
2013-04-06 04:00:00,39.5,32.2,30.02,NNW,344,0.0,0.0,75,0.00,,CLR,0.00,VWS V14.00,2013-04-06 08:00:00,
2013-04-06 04:15:00,40.3,33.3,30.04,SE,138,0.0,8.0,76,0.00,,CLR,0.00,VWS V14.00,2013-04-06 08:15:00,
2013-04-06 04:30:00,40.6,33.0,30.05,SSE,150,0.0,2.0,74,0.00,,CLR,0.00,VWS V14.00,2013-04-06 08:30:00,
2013-04-06 04:45:00,39.9,32.6,30.06,South,185,0.0,0.0,75,0.00,,CLR,0.00,VWS V14.00,2013-04-06 08:45:00,
2013-04-06 05:00:00,39.1,32.2,30.06,SSE,155,0.0,0.0,76,0.00,,CLR,0.00,VWS V14.00,2013-04-06 09:00:00,
2013-04-06 05:15:00,38.3,31.7,30.07,SE,126,0.0,0.0,77,0.00,,CLR,0.00,VWS V14.00,2013-04-06 09:15:00,
2013-04-06 05:30:00,37.8,31.6,30.08,ESE,113,0.0,0.0,78,0.00,,CLR,0.00,VWS V14.00,2013-04-06 09:30:00,
2013-04-06 05:45:00,37.2,31.3,30.09,ESE,117,0.0,0.0,79,0.00,,CLR,0.00,VWS V14.00,2013-04-06 09:45:00,
2013-04-06 06:15:00,37.0,32.0,30.11,East,93,0.0,0.0,82,0.00,,CLR,0.00,VWS V14.00,2013-04-06 10:15:00,
2013-04-06 06:30:00,37.5,32.5,30.12,East,96,0.0,2.0,82,0.00,,CLR,0.00,VWS V14.00,2013-04-06 10:30:00,
2013-04-06 06:45:00,40.1,31.5,30.12,ESE,103,0.0,2.0,71,0.00,,CLR,0.00,VWS V14.00,2013-04-06 10:45:00,
2013-04-06 07:00:00,43.9,32.9,30.13,SE,124,0.0,3.0,65,0.00,,CLR,0.00,VWS V14.00,2013-04-06 11:00:00,
2013-04-06 07:15:00,47.0,30.8,30.14,SW,220,2.0,5.0,53,0.00,,CLR,0.00,VWS V14.00,2013-04-06 11:15:00,
2013-04-06 07:30:00,48.3,30.5,30.15,SSE,157,0.0,8.0,50,0.00,,CLR,0.00,VWS V14.00,2013-04-06 11:30:00,
2013-04-06 07:45:00,49.8,29.9,30.15,SW,230,2.0,8.0,46,0.00,,CLR,0.00,VWS V14.00,2013-04-06 11:45:00,
2013-04-06 08:00:00,50.8,29.1,30.16,SW,234,4.0,11.0,43,0.00,,CLR,0.00,VWS V14.00,2013-04-06 12:00:00,
2013-04-06 08:15:00,52.0,29.0,30.16,WSW,247,10.0,12.0,41,0.00,,CLR,0.00,VWS V14.00,2013-04-06 12:15:00,
2013-04-06 08:30:00,52.6,29.0,30.17,SW,232,2.0,11.0,40,0.00,,CLR,0.00,VWS V14.00,2013-04-06 12:30:00,
2013-04-06 08:45:00,53.2,30.7,30.17,West,260,3.0,12.0,42,0.00,,CLR,0.00,VWS V14.00,2013-04-06 12:45:00,
2013-04-06 09:00:00,53.6,29.9,30.16,WSW,253,6.0,11.0,40,0.00,,CLR,0.00,VWS V14.00,2013-04-06 13:00:00,
2013-04-06 09:15:00,54.2,28.5,30.17,SW,227,1.0,10.0,37,0.00,,CLR,0.00,VWS V14.00,2013-04-06 13:15:00,
2013-04-06 09:30:00,55.0,30.5,30.18,SW,217,5.0,12.0,39,0.00,,CLR,0.00,VWS V14.00,2013-04-06 13:30:00,
2013-04-06 09:45:00,55.4,29.6,30.18,SW,233,4.0,11.0,37,0.00,,CLR,0.00,VWS V14.00,2013-04-06 13:45:00,
2013-04-06 10:00:00,56.5,28.5,30.18,SW,217,1.0,10.0,34,0.00,,CLR,0.00,VWS V14.00,2013-04-06 14:00:00,
2013-04-06 10:15:00,57.2,29.1,30.18,SW,216,2.0,12.0,34,0.00,,CLR,0.00,VWS V14.00,2013-04-06 14:15:00,
2013-04-06 10:30:00,58.4,31.6,30.19,WSW,240,4.0,8.0,36,0.00,,CLR,0.00,VWS V14.00,2013-04-06 14:30:00,
2013-04-06 10:45:00,58.1,31.3,30.19,WSW,239,8.0,11.0,36,0.00,,CLR,0.00,VWS V14.00,2013-04-06 14:45:00,
2013-04-06 11:00:00,59.0,30.7,30.19,North,356,0.0,10.0,34,0.00,,CLR,0.00,VWS V14.00,2013-04-06 15:00:00,
2013-04-06 11:15:00,59.9,31.5,30.19,WSW,250,3.0,7.0,34,0.00,,CLR,0.00,VWS V14.00,2013-04-06 15:15:00,
2013-04-06 11:30:00,60.2,32.5,30.18,West,265,4.0,10.0,35,0.00,,CLR,0.00,VWS V14.00,2013-04-06 15:30:00,
2013-04-06 11:45:00,60.7,29.9,30.18,WSW,247,0.0,7.0,31,0.00,,CLR,0.00,VWS V14.00,2013-04-06 15:45:00,
2013-04-06 12:15:00,61.8,30.9,30.17,SSW,212,3.0,6.0,31,0.00,,CLR,0.00,VWS V14.00,2013-04-06 16:15:00,
2013-04-06 12:30:00,62.3,32.9,30.17,SW,233,2.0,7.0,33,0.00,,CLR,0.00,VWS V14.00,2013-04-06 16:30:00,
2013-04-06 12:45:00,62.4,29.8,30.17,West,280,0.0,12.0,29,0.00,,CLR,0.00,VWS V14.00,2013-04-06 16:45:00,
2013-04-06 13:00:00,63.1,30.4,30.16,South,188,5.0,6.0,29,0.00,,CLR,0.00,VWS V14.00,2013-04-06 17:00:00,
2013-04-06 13:15:00,63.1,28.6,30.16,SSW,199,1.0,8.0,27,0.00,,CLR,0.00,VWS V14.00,2013-04-06 17:15:00,
2013-04-06 13:30:00,63.5,29.8,30.15,WSW,239,5.0,6.0,28,0.00,,CLR,0.00,VWS V14.00,2013-04-06 17:30:00,
2013-04-06 13:45:00,63.7,30.0,30.15,WSW,258,1.0,6.0,28,0.00,,CLR,0.00,VWS V14.00,2013-04-06 17:45:00,
2013-04-06 14:00:00,63.4,30.6,30.14,WSW,239,2.0,5.0,29,0.00,,CLR,0.00,VWS V14.00,2013-04-06 18:00:00,
2013-04-06 14:15:00,63.5,31.5,30.13,SW,220,1.0,6.0,30,0.00,,CLR,0.00,VWS V14.00,2013-04-06 18:15:00,
2013-04-06 14:30:00,63.2,29.6,30.13,SW,217,5.0,6.0,28,0.00,,CLR,0.00,VWS V14.00,2013-04-06 18:30:00,
2013-04-06 14:45:00,63.2,30.4,30.12,SW,229,2.0,7.0,29,0.00,,CLR,0.00,VWS V14.00,2013-04-06 18:45:00,
2013-04-06 15:00:00,63.4,29.8,30.12,SSW,213,2.0,8.0,28,0.00,,CLR,0.00,VWS V14.00,2013-04-06 19:00:00,
2013-04-06 15:15:00,63.7,30.0,30.11,SSW,206,0.0,6.0,28,0.00,,CLR,0.00,VWS V14.00,2013-04-06 19:15:00,
2013-04-06 16:00:00,63.7,30.9,30.10,SSW,199,2.0,5.0,29,0.00,,CLR,0.00,VWS V14.00,2013-04-06 20:00:00,
2013-04-06 16:15:00,63.7,29.1,30.10,South,186,1.0,5.0,27,0.00,,CLR,0.00,VWS V14.00,2013-04-06 20:15:00,
2013-04-06 16:30:00,63.9,29.3,30.10,SSW,205,2.0,7.0,27,0.00,,CLR,0.00,VWS V14.00,2013-04-06 20:30:00,
2013-04-06 16:31:00,63.7,30.0,30.11,WSW,237,1.0,7.0,28,0.00,,CLR,0.00,VWS V14.00,2013-04-06 20:31:00,
2013-04-06 16:45:00,63.7,29.1,30.10,SSW,193,1.0,6.0,27,0.00,,CLR,0.00,VWS V14.00,2013-04-06 20:45:00,
2013-04-06 16:46:00,63.7,29.1,30.10,SSW,198,2.0,6.0,27,0.00,,CLR,0.00,VWS V14.00,2013-04-06 20:46:00,
2013-04-06 17:00:00,63.4,28.9,30.10,SSW,202,2.0,5.0,27,0.00,,CLR,0.00,VWS V14.00,2013-04-06 21:00:00,
2013-04-06 17:15:00,63.2,29.6,30.11,SW,219,0.0,5.0,28,0.00,,CLR,0.00,VWS V14.00,2013-04-06 21:15:00,
2013-04-06 17:30:00,62.4,31.4,30.12,SW,234,1.0,4.0,31,0.00,,CLR,0.00,VWS V14.00,2013-04-06 21:30:00,
2013-04-06 18:00:00,61.3,31.2,30.12,SW,220,0.0,3.0,32,0.00,,CLR,0.00,VWS V14.00,2013-04-06 22:00:00,
2013-04-06 18:45:00,59.0,30.7,30.12,WSW,239,0.0,2.0,34,0.00,,CLR,0.00,VWS V14.00,2013-04-06 22:45:00,
2013-04-06 18:46:00,62.0,31.8,30.12,SW,236,0.0,5.0,32,0.00,,CLR,0.00,VWS V14.00,2013-04-06 22:46:00,
2013-04-06 19:00:00,57.8,31.0,30.13,WSW,241,0.0,1.0,36,0.00,,CLR,0.00,VWS V14.00,2013-04-06 23:00:00,
2013-04-06 19:16:00,60.5,31.3,30.11,SW,230,1.0,5.0,33,0.00,,CLR,0.00,VWS V14.00,2013-04-06 23:16:00,
2013-04-06 19:30:00,55.4,32.1,30.12,SW,226,0.0,1.0,41,0.00,,CLR,0.00,VWS V14.00,2013-04-06 23:30:00,
2013-04-06 19:31:00,59.9,31.5,30.12,SW,219,0.0,2.0,34,0.00,,CLR,0.00,VWS V14.00,2013-04-06 23:31:00,
2013-04-06 20:00:00,53.9,32.5,30.13,WSW,237,0.0,2.0,44,0.00,,CLR,0.00,VWS V14.00,2013-04-07 00:00:00,
2013-04-06 20:16:00,56.6,32.0,30.12,SW,227,0.0,1.0,39,0.00,,CLR,0.00,VWS V14.00,2013-04-07 00:16:00,
2013-04-06 20:30:00,53.1,31.8,30.14,SW,223,0.0,2.0,44,0.00,,CLR,0.00,VWS V14.00,2013-04-07 00:30:00,
2013-04-06 21:00:00,51.7,32.7,30.15,SW,232,0.0,3.0,48,0.00,,CLR,0.00,VWS V14.00,2013-04-07 01:00:00,
2013-04-06 21:16:00,53.5,32.1,30.14,SSW,213,0.0,2.0,44,0.00,,CLR,0.00,VWS V14.00,2013-04-07 01:16:00,
2013-04-06 21:30:00,51.9,31.2,30.15,WSW,248,0.0,4.0,45,0.00,,CLR,0.00,VWS V14.00,2013-04-07 01:30:00,
2013-04-06 21:45:00,52.3,31.0,30.15,WSW,248,0.0,4.0,44,0.00,,CLR,0.00,VWS V14.00,2013-04-07 01:45:00,
2013-04-06 21:47:00,52.5,31.8,30.15,SW,234,0.0,2.0,45,0.00,,CLR,0.00,VWS V14.00,2013-04-07 01:47:00,
2013-04-06 22:17:00,51.9,31.2,30.15,WSW,237,0.0,3.0,45,0.00,,CLR,0.00,VWS V14.00,2013-04-07 02:17:00,
2013-04-06 22:45:00,51.0,32.0,30.14,WSW,246,1.0,3.0,48,0.00,,CLR,0.00,VWS V14.00,2013-04-07 02:45:00,
2013-04-06 23:00:00,50.5,32.6,30.14,West,260,1.0,5.0,50,0.00,,CLR,0.00,VWS V14.00,2013-04-07 03:00:00,
2013-04-06 23:02:00,52.5,31.8,30.15,WSW,244,0.0,4.0,45,0.00,,CLR,0.00,VWS V14.00,2013-04-07 03:02:00,
2013-04-06 23:15:00,50.2,32.8,30.14,WSW,254,0.0,3.0,51,0.00,,CLR,0.00,VWS V14.00,2013-04-07 03:15:00,
2013-04-06 23:16:00,51.9,31.8,30.14,WSW,239,0.0,3.0,46,0.00,,CLR,0.00,VWS V14.00,2013-04-07 03:16:00,
2013-04-06 23:30:00,49.9,32.5,30.14,SSW,202,3.0,5.0,51,0.00,,CLR,0.00,VWS V14.00,2013-04-07 03:30:00,
2013-04-06 23:31:00,51.4,31.9,30.14,WSW,258,0.0,6.0,47,0.00,,CLR,0.00,VWS V14.00,2013-04-07 03:31:00,
2013-04-06 23:45:00,50.2,32.8,30.15,West,268,1.0,6.0,51,0.00,,CLR,0.00,VWS V14.00,2013-04-07 03:45:00,